Regional Weather Roundup
Issued by NWS Upton, NY

Current Version | Previous Version | Graphics & Text | Print | Product List | Glossary Off
Versions: 1 2 3 4 5 6 7 8 9 10 11 12 13 14 15 16 17 18 19 20 21 22 23 24 25 26 27 28 29 30 31 32 33 34 35 36 37 38 39 40 41 42 43 44 45 46 47 48 49

000
ASUS41 KOKX 030804
RWROKX

REGIONAL WEATHER ROUNDUP
NATIONAL WEATHER SERVICE NEW YORK NY
400 AM EDT MON AUG 03 2015

NOTE: "FAIR" INDICATES FEW OR NO CLOUDS BELOW 12,000 FEET WITH NO
SIGNIFICANT WEATHER AND/OR OBSTRUCTIONS TO VISIBILITY.

NYZ071-072-176-178-NJZ106-104-030900-
NEW YORK CITY METRO AREA


CITY           SKY/WX    TMP DP  RH WIND       PRES   REMARKS
CENTRAL PARK   CLEAR     77  58  51 VRB3      29.87S
LAGUARDIA APRT CLEAR     78  58  49 SW10      29.83S
KENNEDY INTL   PTCLDY    73  64  73 SW8       29.86R
NEWARK/LIBERTY CLEAR     74  60  61 SW6       29.84F
BRNX BOT. GARD   N/A     77  57  50 W9        29.85S
TETERBORO      CLEAR     72  58  61 S6        29.83S
$$

NYZ177-179-078>081-030900-
LONG ISLAND NEW YORK

CITY           SKY/WX    TMP DP  RH WIND       PRES   REMARKS
FARMINGDALE    CLEAR     73  62  68 SW7       29.85F
ISLIP          CLEAR     71  62  73 SW5       29.84S
SHIRLEY        CLEAR     73  67  81 CALM      29.86S
WESTHAMPTON    CLEAR     73  70  90 SW3       29.87S
MONTAUK POINT    N/A     73  70  90 S6        29.87S
$$

NYZ052-065-067-030900-
HUDSON VALLEY

CITY           SKY/WX    TMP DP  RH WIND       PRES   REMARKS
WHITE PLAINS   CLEAR     69  63  81 CALM      29.85S
NEWBURGH       CLEAR     72  61  68 SW7       29.84F
MONTGOMERY     CLEAR     63  60  90 CALM      29.83F
POUGHKEEPSIE   CLEAR     64  59  83 CALM      29.81F
ALBANY         CLOUDY    71  57  61 S10       29.77F
$$

NJZ001-105-106-008-010-013-015-019>022-104-030900-
NEW JERSEY

CITY           SKY/WX    TMP DP  RH WIND       PRES   REMARKS
NEWARK/LIBERTY CLEAR     74  60  61 SW6       29.84F
TETERBORO      CLEAR     72  58  61 S6        29.83S
CALDWELL       CLEAR     69  58  67 CALM      29.85F
MORRISTOWN     CLEAR     63  57  82 CALM      29.85F
SOMERVILLE     CLEAR     60  58  92 CALM      29.84S
SUSSEX         CLEAR     60  57  89 SW3       29.85S
ANDOVER          N/A     62  61  96 CALM      29.86S
TRENTON        CLEAR     70  62  76 CALM      29.85S
MILLVILLE      CLEAR     64  61  90 CALM      29.88S
ATLANTIC CITY  CLEAR     71  68  90 CALM      29.88S
WRIGHTSTOWN    NOT AVBL
TOMS RIVER       N/A     70  66  88 SW6       29.87F
BELMAR         CLEAR     70  61  73 SW6       29.86F
$$

PAZ047>061-062-071-030900-
EASTERN PENNSYLVANIA

CITY           SKY/WX    TMP DP  RH WIND       PRES   REMARKS
PHILADELPHIA   CLEAR     73  64  73 S8        29.87S
ALLENTOWN      CLEAR     63  60  90 CALM      29.85S
SCRANTON       PTCLDY    67  58  72 CALM      29.82F
$$

CTZ002-004>006-009-010-012-RIZ004-006-007-MAZ004-011-015-030900-
SOUTHERN NEW ENGLAND
 IN CT

CITY           SKY/WX    TMP DP  RH WIND       PRES   REMARKS
BRADLEY INTL   CLEAR     68  65  90 S7        29.82F
HARTFORD       CLEAR     70  67  90 S6        29.82F
DANBURY        CLEAR     67  60  78 CALM      29.86S
WTRBRY/OXFORD  CLEAR     70  61  73 CALM      29.87F
BRIDGEPORT     CLEAR     72  68  87 S3        29.84F
MERIDEN        CLEAR     65  61  87 CALM      29.84F
NEW HAVEN      CLEAR     72  69  90 S5        29.84F
CHESTER        FAIR      70  70 100 SW5       29.87S
GROTON         CLEAR     66  65  96 CALM      29.85R FOG
WILLIMANTIC    CLEAR     63  61  93 CALM      29.85F

 IN RI

CITY           SKY/WX    TMP DP  RH WIND       PRES   REMARKS
PROVIDENCE     CLEAR     68  67  96 S3        29.86S
BLOCK ISLAND     N/A     73  72  94 SW10      29.88S
WESTERLY       CLEAR     64  62  93 CALM      29.87R

 IN MA

CITY           SKY/WX    TMP DP  RH WIND       PRES   REMARKS
BOSTON         CLEAR     69  66  90 S5        29.85S
WORCESTER      CLEAR     65  63  93 SW10      29.86F
WESTFIELD      CLEAR     64  61  90 SW5       29.82F
PROVINCETOWN   CLEAR     72  64  78 S8        29.87S
NANTUCKET      PTCLDY    71  69  93 S7        29.89S
$$

ANZ330-335-338-340-345-350-353-355-030900-
COASTAL MARINE OBSERVATIONS


STATION/POSITION TIME  SKY/WX   TEMP    WIND        PRES    VSBY  WAVE
                                AIR SEA DIR/SP/G                  HT/PER
                 (UTC)          (F)     (DEG/KT/KT) (MB)    (MI)  (FT/S)
NY HARB ENTRANCE 0650            76 72  220/ 14/ 16 1010.6          3/ 8
4S FIRE IS       NOT AVBL
20S FIRE ISLAND  0650            77 75  240/ 12/ 14 1011.0          3/ 8
GREAT SOUTH BAY  0715            77 80  270/ 12/ 14   N/A
23SW MTP         0750            76 75  220/ 12/ 16 1011.0          3/ 8
HUDSON CANYON    NOT AVBL
KINGS POINT      0700            75 70  210/  7/  8 1009.9
EXECUTION ROCKS  0700            74     190/  4/  4   N/A
CENTRAL LI SOUND NOT AVBL
EASTERN LI SOUND 0700            71 68  230/  2/  4   N/A
ROBBINS REEF     0700            77     240/ 13/ 17 1009.4
$$


>>>>>>>>>>>>>>>>>>>>>>>>>>>> KEY <<<<<<<<<<<<<<<<<<<<<<<<<<<
>                                                          <
>     SKY/WX - SKY CONDITION/PRESENT WEATHER               <
>     TMP    - TEMPERATURE IN FAHRENHEIT                   <
>     DP     - DEWPOINT IN FAHRENHEIT                      <
>     RH     - RELATIVE HUMIDITY IN PERCENT                <
>     WIND   - DIRECTION AND SPEED IN MPH                  <
>     PRES   - MEAN SEA LEVEL PRESSURE IN INCHES OF HG     <
>     WCI    - WIND CHILL INDEX                            <
>     VSB    - VISIBILITY IN MILES                         <
>     HX     - HEAT INDEX                                  <
>     TC     - TEMPERATURE IN CELSIUS                      <
>     VRB    - VARIABLE WIND DIRECTION                     <
>                                                          <
>>>>>>>>>>>>>>>>>>>>>>>>>>>> KEY <<<<<<<<<<<<<<<<<<<<<<<<<<<




USA.gov is the U.S. government's official web portal to all federal, state and local government web resources and services.